Year,Month,Day,Hour,Minute,Value (Times are PST for temperature in C)
2013,09,21,13,04,16.30
2013,09,21,13,05,16.40
2013,09,21,13,06,16.40
2013,09,21,13,07,16.40
2013,09,21,13,08,16.40
2013,09,21,13,09,16.40
2013,09,21,13,10,16.50
2013,09,21,13,11,16.50
2013,09,21,13,12,16.50
2013,09,21,13,13,16.50
2013,09,21,13,14,16.50
2013,09,21,13,15,16.50
2013,09,21,13,16,16.60
2013,09,21,13,17,16.60
2013,09,21,13,18,16.60
2013,09,21,13,19,16.60
2013,09,21,13,20,16.60
2013,09,21,13,21,16.60
2013,09,21,13,22,16.70
2013,09,21,13,23,16.70
2013,09,21,13,24,16.70
2013,09,21,13,25,16.70
2013,09,21,13,26,16.70
2013,09,21,13,27,16.70
2013,09,21,13,28,16.70
2013,09,21,13,29,16.60
2013,09,21,13,30,16.60
2013,09,21,13,31,16.50
2013,09,21,13,32,16.40
2013,09,21,13,33,16.20
2013,09,21,13,34,16.00
2013,09,21,13,35,15.90
2013,09,21,13,36,15.70
2013,09,21,13,37,15.60
2013,09,21,13,38,15.40
2013,09,21,13,39,15.30
2013,09,21,13,40,15.10
2013,09,21,13,41,14.90
2013,09,21,13,42,14.70
2013,09,21,13,43,14.60
2013,09,21,13,44,14.40
2013,09,21,13,45,14.30
2013,09,21,13,46,14.20
2013,09,21,13,47,14.10
2013,09,21,13,48,14.00
2013,09,21,13,49,13.90
2013,09,21,13,50,13.80
2013,09,21,13,51,13.80
2013,09,21,13,52,13.70
2013,09,21,13,53,13.60
2013,09,21,13,54,13.60
2013,09,21,13,55,13.50
2013,09,21,13,56,13.50
2013,09,21,13,57,13.40
2013,09,21,13,58,13.40
2013,09,21,13,59,13.40
2013,09,21,14,00,13.40
2013,09,21,14,01,13.30
2013,09,21,14,02,13.30
2013,09,21,14,03,13.30
2013,09,21,14,04,13.30
2013,09,21,14,05,13.30
2013,09,21,14,06,13.30
2013,09,21,14,07,13.30
2013,09,21,14,08,13.30
2013,09,21,14,09,13.30
2013,09,21,14,10,13.30
2013,09,21,14,11,13.30
2013,09,21,14,12,13.30
2013,09,21,14,13,13.30
2013,09,21,14,14,13.30
2013,09,21,14,15,13.30
2013,09,21,14,16,13.30
2013,09,21,14,17,13.40
2013,09,21,14,18,13.40
2013,09,21,14,19,13.40
2013,09,21,14,20,13.50
2013,09,21,14,21,13.50
2013,09,21,14,22,13.60
2013,09,21,14,23,13.60
2013,09,21,14,24,13.60
2013,09,21,14,25,13.70
2013,09,21,14,26,13.70
2013,09,21,14,27,13.70
2013,09,21,14,28,13.70
2013,09,21,14,29,13.80
2013,09,21,14,30,13.80
2013,09,21,14,31,13.90
2013,09,21,14,32,14.00
2013,09,21,14,33,14.00
2013,09,21,14,34,14.00
2013,09,21,14,35,14.10
2013,09,21,14,36,14.10
2013,09,21,14,37,14.20
2013,09,21,14,38,14.30
2013,09,21,14,39,14.30
2013,09,21,14,40,14.40
2013,09,21,14,41,14.40
2013,09,21,14,42,14.50
2013,09,21,14,43,14.50
2013,09,21,14,44,14.60
2013,09,21,14,45,14.60
2013,09,21,14,46,14.60
2013,09,21,14,47,14.60
2013,09,21,14,48,14.60
2013,09,21,14,49,14.60
2013,09,21,14,50,14.60
2013,09,21,14,51,14.60
2013,09,21,14,52,14.60
2013,09,21,14,53,14.70
2013,09,21,14,54,14.70
2013,09,21,14,55,14.80
2013,09,21,14,56,14.80
2013,09,21,14,57,14.70
2013,09,21,14,58,14.70
2013,09,21,14,59,14.70
2013,09,21,15,00,14.70
2013,09,21,15,01,14.70
2013,09,21,15,02,14.70
2013,09,21,15,03,14.70
2013,09,21,15,04,14.70
2013,09,21,15,05,14.70
2013,09,21,15,06,14.70
2013,09,21,15,07,14.70
2013,09,21,15,08,14.70
2013,09,21,15,09,14.70
2013,09,21,15,10,14.70
2013,09,21,15,11,14.70
2013,09,21,15,12,14.70
2013,09,21,15,13,14.70
2013,09,21,15,14,14.70
2013,09,21,15,15,14.60
2013,09,21,15,16,14.60
2013,09,21,15,17,14.60
2013,09,21,15,18,14.60
2013,09,21,15,19,14.60
2013,09,21,15,20,14.60
2013,09,21,15,21,14.60
2013,09,21,15,22,14.60
2013,09,21,15,23,14.50
2013,09,21,15,24,14.50
2013,09,21,15,25,14.50
2013,09,21,15,26,14.50
2013,09,21,15,27,14.50
2013,09,21,15,28,14.50
2013,09,21,15,29,14.50
2013,09,21,15,30,14.40
2013,09,21,15,31,14.40
2013,09,21,15,32,14.40
2013,09,21,15,33,14.40
2013,09,21,15,34,14.50
2013,09,21,15,35,14.50
2013,09,21,15,36,14.50
2013,09,21,15,37,14.50
2013,09,21,15,38,14.60
2013,09,21,15,39,14.60
2013,09,21,15,40,14.60
2013,09,21,15,41,14.60
2013,09,21,15,42,14.60
2013,09,21,15,43,14.60
2013,09,21,15,44,14.60
2013,09,21,15,45,14.60
2013,09,21,15,46,14.70
2013,09,21,15,47,14.60
2013,09,21,15,48,14.70
2013,09,21,15,49,14.70
2013,09,21,15,50,14.60
2013,09,21,15,51,14.60
2013,09,21,15,52,14.60
2013,09,21,15,53,14.60
2013,09,21,15,54,14.50
2013,09,21,15,55,14.50
2013,09,21,15,56,14.40
2013,09,21,15,57,14.40
2013,09,21,15,58,14.40
2013,09,21,15,59,14.40
2013,09,21,16,00,14.40
2013,09,21,16,01,14.40
2013,09,21,16,02,14.40
2013,09,21,16,03,14.40
2013,09,21,16,04,14.40
2013,09,21,16,05,14.40
2013,09,21,16,06,14.40
2013,09,21,16,07,14.40
2013,09,21,16,08,14.40
2013,09,21,16,09,14.40
2013,09,21,16,10,14.40
2013,09,21,16,11,14.40
2013,09,21,16,12,14.40
2013,09,21,16,13,14.40
2013,09,21,16,14,14.40
2013,09,21,16,15,14.40
2013,09,21,16,16,14.40
2013,09,21,16,17,14.40
2013,09,21,16,18,14.50
2013,09,21,16,19,14.50
2013,09,21,16,20,14.50
2013,09,21,16,21,14.60
2013,09,21,16,22,14.60
2013,09,21,16,23,14.60
2013,09,21,16,24,14.60
2013,09,21,16,25,14.70
2013,09,21,16,26,14.70
2013,09,21,16,27,14.70
2013,09,21,16,28,14.70
2013,09,21,16,29,14.70
2013,09,21,16,30,14.80
2013,09,21,16,31,14.80
2013,09,21,16,32,14.80
2013,09,21,16,33,14.80
2013,09,21,16,34,14.80
2013,09,21,16,35,14.80
2013,09,21,16,36,14.80
2013,09,21,16,37,14.90
2013,09,21,16,38,14.90
2013,09,21,16,39,14.90
2013,09,21,16,40,14.90
2013,09,21,16,41,14.90
2013,09,21,16,42,14.90
2013,09,21,16,43,14.90
2013,09,21,16,44,14.90
2013,09,21,16,45,14.80
2013,09,21,16,46,14.80
2013,09,21,16,47,14.80
2013,09,21,16,48,14.80
2013,09,21,16,49,14.80
2013,09,21,16,50,14.80
2013,09,21,16,51,14.80
2013,09,21,16,52,14.80
2013,09,21,16,53,14.80
2013,09,21,16,54,14.80
2013,09,21,16,55,14.80
2013,09,21,16,56,14.80
2013,09,21,16,57,14.80
2013,09,21,16,58,14.80
2013,09,21,16,59,14.80
2013,09,21,17,00,14.80
2013,09,21,17,01,14.80
2013,09,21,17,02,14.80
2013,09,21,17,03,14.80
2013,09,21,17,04,14.80
2013,09,21,17,05,14.80
2013,09,21,17,06,14.80
2013,09,21,17,07,14.80
2013,09,21,17,08,14.80
2013,09,21,17,09,14.80
2013,09,21,17,10,14.80
2013,09,21,17,11,14.70
2013,09,21,17,12,14.70
2013,09,21,17,13,14.70
2013,09,21,17,14,14.70
2013,09,21,17,15,14.70
2013,09,21,17,16,14.70
2013,09,21,17,17,14.70
2013,09,21,17,18,14.70
2013,09,21,17,19,14.70
2013,09,21,17,20,14.70
2013,09,21,17,21,14.70
2013,09,21,17,22,14.70
2013,09,21,17,23,14.70
2013,09,21,17,24,14.70
2013,09,21,17,25,14.70
2013,09,21,17,26,14.70
2013,09,21,17,27,14.70
2013,09,21,17,28,14.70
2013,09,21,17,29,14.60
2013,09,21,17,30,14.60
2013,09,21,17,31,14.70
2013,09,21,17,32,14.60
2013,09,21,17,33,14.60
2013,09,21,17,34,14.60
2013,09,21,17,35,14.60
2013,09,21,17,36,14.60
2013,09,21,17,37,14.60
2013,09,21,17,38,14.60
2013,09,21,17,39,14.60
2013,09,21,17,40,14.70
2013,09,21,17,41,14.60
2013,09,21,17,42,14.70
2013,09,21,17,43,14.70
2013,09,21,17,44,14.70
2013,09,21,17,45,14.70
2013,09,21,17,46,14.70
2013,09,21,17,47,14.60
2013,09,21,17,48,14.60
2013,09,21,17,49,14.60
2013,09,21,17,50,14.60
2013,09,21,17,51,14.60
2013,09,21,17,52,14.60
2013,09,21,17,53,14.60
2013,09,21,17,54,14.60
2013,09,21,17,55,14.60
2013,09,21,17,56,14.60
2013,09,21,17,57,14.60
2013,09,21,17,58,14.60
2013,09,21,17,59,14.60
2013,09,21,18,00,14.60
2013,09,21,18,01,14.60
2013,09,21,18,02,14.60
2013,09,21,18,03,14.60
2013,09,21,18,04,14.60
2013,09,21,18,05,14.60
2013,09,21,18,06,14.60
2013,09,21,18,07,14.60
2013,09,21,18,08,14.60
2013,09,21,18,09,14.60
2013,09,21,18,10,14.60
2013,09,21,18,11,14.60
2013,09,21,18,12,14.60
2013,09,21,18,13,14.60
2013,09,21,18,14,14.60
2013,09,21,18,15,14.60
2013,09,21,18,16,14.60
2013,09,21,18,17,14.60
2013,09,21,18,18,14.50
2013,09,21,18,19,14.50
2013,09,21,18,20,14.50
2013,09,21,18,21,14.50
2013,09,21,18,22,14.40
2013,09,21,18,23,14.40
2013,09,21,18,24,14.40
2013,09,21,18,25,14.30
2013,09,21,18,26,14.30
2013,09,21,18,27,14.30
2013,09,21,18,28,14.30
2013,09,21,18,29,14.30
2013,09,21,18,30,14.30
2013,09,21,18,31,14.20
2013,09,21,18,32,14.20
2013,09,21,18,33,14.20
2013,09,21,18,34,14.20
2013,09,21,18,35,14.20
2013,09,21,18,36,14.20
2013,09,21,18,37,14.20
2013,09,21,18,38,14.20
2013,09,21,18,39,14.10
2013,09,21,18,40,14.10
2013,09,21,18,41,14.10
2013,09,21,18,42,14.10
2013,09,21,18,43,14.10
2013,09,21,18,44,14.10
2013,09,21,18,45,14.00
2013,09,21,18,46,14.00
2013,09,21,18,47,14.00
2013,09,21,18,48,13.90
2013,09,21,18,49,13.90
2013,09,21,18,50,13.90
2013,09,21,18,51,13.90
2013,09,21,18,52,13.90
2013,09,21,18,53,13.90
2013,09,21,18,54,13.90
2013,09,21,18,55,13.90
2013,09,21,18,56,13.90
2013,09,21,18,57,13.90
2013,09,21,18,58,13.90
2013,09,21,18,59,13.90
2013,09,21,19,00,13.90
2013,09,21,19,01,13.90
2013,09,21,19,02,13.90
